owner,sensor,date,latitude,longitude,vertical_datum,sea_water_temperature,qcFlag
ENI,ioos:station:wmo:42881:2,2022-10-27T14:36:00Z,26.9117,-91.5700,30.0,27.8,11111222
ENI,ioos:station:wmo:42881:2,2022-10-27T14:55:00Z,26.9117,-91.5700,30.0,27.8,11111222
ENI,ioos:station:wmo:42881:2,2022-10-27T15:01:00Z,26.9117,-91.5700,30.0,27.8,11111222
ENI,ioos:station:wmo:42881:2,2022-10-27T15:19:00Z,26.9117,-91.5700,30.0,27.8,11111222
ENI,ioos:station:wmo:42881:2,2022-10-27T15:29:00Z,26.9121,-91.5728,30.0,27.8,11111222
ENI,ioos:station:wmo:42881:2,2022-10-27T15:39:00Z,26.9121,-91.5727,30.0,27.8,11111222
ENI,ioos:station:wmo:42881:2,2022-10-27T15:50:00Z,26.9121,-91.5728,30.0,27.8,11111222
ENI,ioos:station:wmo:42881:2,2022-10-27T16:00:00Z,26.9121,-91.5727,30.0,27.8,11111222
ENI,ioos:station:wmo:42881:2,2022-10-27T16:09:00Z,26.9121,-91.5727,30.0,27.8,11111222
ENI,ioos:station:wmo:42881:2,2022-10-27T16:19:00Z,26.9121,-91.5728,30.0,27.8,11111222
ENI,ioos:station:wmo:42881:2,2022-10-27T16:29:00Z,26.9120,-91.5728,30.0,27.8,11111222
ENI,ioos:station:wmo:42881:2,2022-10-27T16:39:00Z,26.9120,-91.5728,30.0,27.8,11111222
ENI,ioos:station:wmo:42881:2,2022-10-27T16:49:00Z,26.9120,-91.5728,30.0,27.8,11111222
ENI,ioos:station:wmo:42881:2,2022-10-27T16:59:00Z,26.9122,-91.5727,30.0,27.8,11111222
ENI,ioos:station:wmo:42881:2,2022-10-27T17:09:00Z,26.9122,-91.5727,30.0,27.9,11111222
ENI,ioos:station:wmo:42881:2,2022-10-27T17:19:00Z,26.9122,-91.5728,30.0,27.8,11111222
ENI,ioos:station:wmo:42881:2,2022-10-27T17:29:00Z,26.9119,-91.5730,30.0,27.8,11111222
ENI,ioos:station:wmo:42881:2,2022-10-27T17:39:00Z,26.9119,-91.5730,30.0,27.8,11111222
ENI,ioos:station:wmo:42881:2,2022-10-27T17:49:00Z,26.9118,-91.5735,30.0,27.8,11111222
ENI,ioos:station:wmo:42881:2,2022-10-27T17:59:00Z,26.9118,-91.5735,30.0,27.9,11111222
ENI,ioos:station:wmo:42881:2,2022-10-27T18:09:00Z,26.9118,-91.5735,30.0,27.9,11111222
ENI,ioos:station:wmo:42881:2,2022-10-27T18:19:00Z,26.9118,-91.5735,30.0,27.8,11111222
ENI,ioos:station:wmo:42881:2,2022-10-27T18:29:00Z,26.9118,-91.5734,30.0,27.7,11111222
ENI,ioos:station:wmo:42881:2,2022-10-27T18:39:00Z,26.9117,-91.5735,30.0,27.7,11111222
ENI,ioos:station:wmo:42881:2,2022-10-27T18:49:00Z,26.9117,-91.5735,30.0,27.6,11111222
ENI,ioos:station:wmo:42881:2,2022-10-27T18:59:00Z,26.9117,-91.5735,30.0,27.6,11111222
ENI,ioos:station:wmo:42881:2,2022-10-27T19:09:00Z,26.9118,-91.5735,30.0,27.6,11111222
ENI,ioos:station:wmo:42881:2,2022-10-27T19:19:00Z,26.9118,-91.5735,30.0,27.7,11111222
ENI,ioos:station:wmo:42881:2,2022-10-27T19:29:00Z,26.9118,-91.5735,30.0,27.6,11111222
ENI,ioos:station:wmo:42881:2,2022-10-27T19:39:00Z,26.9119,-91.5735,30.0,27.6,11111222
ENI,ioos:station:wmo:42881:2,2022-10-27T19:49:00Z,26.9119,-91.5735,30.0,27.6,11111222
ENI,ioos:station:wmo:42881:2,2022-10-27T19:59:00Z,26.9119,-91.5735,30.0,27.6,11111222
ENI,ioos:station:wmo:42881:2,2022-10-27T20:09:00Z,26.9118,-91.5735,30.0,27.6,11111222
ENI,ioos:station:wmo:42881:2,2022-10-27T20:19:00Z,26.9118,-91.5735,30.0,27.6,11111222
ENI,ioos:station:wmo:42881:2,2022-10-27T20:29:00Z,26.9118,-91.5735,30.0,27.6,11111222
ENI,ioos:station:wmo:42881:2,2022-10-27T20:39:00Z,26.9118,-91.5735,30.0,27.6,11111222
ENI,ioos:station:wmo:42881:2,2022-10-27T20:49:00Z,26.9118,-91.5731,30.0,27.6,11111222
ENI,ioos:station:wmo:42881:2,2022-10-27T20:59:00Z,26.9118,-91.5731,30.0,27.6,11111222
ENI,ioos:station:wmo:42881:2,2022-10-27T21:09:00Z,26.9118,-91.5731,30.0,27.6,11111222
ENI,ioos:station:wmo:42881:2,2022-10-27T21:19:00Z,26.9119,-91.5721,30.0,27.6,11111222
ENI,ioos:station:wmo:42881:2,2022-10-27T21:29:00Z,26.9119,-91.5719,30.0,27.6,11111222
ENI,ioos:station:wmo:42881:2,2022-10-27T21:39:00Z,26.9119,-91.5719,30.0,27.6,11111222
ENI,ioos:station:wmo:42881:2,2022-10-27T21:49:00Z,26.9119,-91.5717,30.0,27.6,11111222
ENI,ioos:station:wmo:42881:2,2022-10-27T21:59:00Z,26.9118,-91.5717,30.0,27.6,11111222
ENI,ioos:station:wmo:42881:2,2022-10-27T22:09:00Z,26.9119,-91.5716,30.0,27.6,11111222
ENI,ioos:station:wmo:42881:2,2022-10-27T22:19:00Z,26.9119,-91.5716,30.0,27.6,11111222
ENI,ioos:station:wmo:42881:2,2022-10-27T22:29:00Z,26.9119,-91.5715,30.0,27.6,11111222
ENI,ioos:station:wmo:42881:2,2022-10-27T22:39:00Z,26.9120,-91.5717,30.0,27.6,11111222
ENI,ioos:station:wmo:42881:2,2022-10-27T22:49:00Z,26.9120,-91.5717,30.0,27.6,11111222
ENI,ioos:station:wmo:42881:2,2022-10-27T22:59:00Z,26.9120,-91.5717,30.0,27.6,11111222
ENI,ioos:station:wmo:42881:2,2022-10-27T23:09:00Z,26.9121,-91.5717,30.0,27.6,11111222
ENI,ioos:station:wmo:42881:2,2022-10-27T23:19:00Z,26.9120,-91.5717,30.0,27.6,11111222
ENI,ioos:station:wmo:42881:2,2022-10-27T23:29:00Z,26.9120,-91.5717,30.0,27.6,11111222
ENI,ioos:station:wmo:42881:2,2022-10-27T23:39:00Z,26.9120,-91.5717,30.0,27.6,11111222
ENI,ioos:station:wmo:42881:2,2022-10-27T23:49:00Z,26.9119,-91.5715,30.0,27.6,11111222
ENI,ioos:station:wmo:42881:2,2022-10-27T23:59:00Z,26.9119,-91.5715,30.0,27.6,11111222
ENI,ioos:station:wmo:42881:2,2022-10-28T00:09:00Z,26.9120,-91.5715,30.0,27.6,11111222
ENI,ioos:station:wmo:42881:2,2022-10-28T00:19:00Z,26.9120,-91.5715,30.0,27.6,11111222
ENI,ioos:station:wmo:42881:2,2022-10-28T00:29:00Z,26.9120,-91.5716,30.0,27.6,11111222
ENI,ioos:station:wmo:42881:2,2022-10-28T00:39:00Z,26.9120,-91.5716,30.0,27.6,11111222
ENI,ioos:station:wmo:42881:2,2022-10-28T00:49:00Z,26.9119,-91.5718,30.0,27.6,11111222
ENI,ioos:station:wmo:42881:2,2022-10-28T00:59:00Z,26.9119,-91.5718,30.0,27.6,11111222
ENI,ioos:station:wmo:42881:2,2022-10-28T01:09:00Z,26.9119,-91.5717,30.0,27.6,11111222
ENI,ioos:station:wmo:42881:2,2022-10-28T01:19:00Z,26.9119,-91.5719,30.0,27.6,11111222
ENI,ioos:station:wmo:42881:2,2022-10-28T01:29:00Z,26.9120,-91.5717,30.0,27.7,11111222
ENI,ioos:station:wmo:42881:2,2022-10-28T01:39:00Z,26.9120,-91.5718,30.0,27.6,11111222
ENI,ioos:station:wmo:42881:2,2022-10-28T01:49:00Z,26.9119,-91.5718,30.0,27.6,11111222
ENI,ioos:station:wmo:42881:2,2022-10-28T01:59:00Z,26.9120,-91.5717,30.0,27.6,11111222
ENI,ioos:station:wmo:42881:2,2022-10-28T02:09:00Z,26.9120,-91.5716,30.0,27.7,11111222
ENI,ioos:station:wmo:42881:2,2022-10-28T02:19:00Z,26.9120,-91.5716,30.0,27.8,11111222
ENI,ioos:station:wmo:42881:2,2022-10-28T02:29:00Z,26.9119,-91.5716,30.0,27.8,11111222
ENI,ioos:station:wmo:42881:2,2022-10-28T02:39:00Z,26.9120,-91.5716,30.0,27.9,11111222
ENI,ioos:station:wmo:42881:2,2022-10-28T02:49:00Z,26.9120,-91.5716,30.0,27.9,11111222
ENI,ioos:station:wmo:42881:2,2022-10-28T02:59:00Z,26.9120,-91.5716,30.0,27.9,11111222
ENI,ioos:station:wmo:42881:2,2022-10-28T03:09:00Z,26.9120,-91.5717,30.0,27.9,11111222
ENI,ioos:station:wmo:42881:2,2022-10-28T03:19:00Z,26.9120,-91.5717,30.0,27.9,11111222
ENI,ioos:station:wmo:42881:2,2022-10-28T03:29:00Z,26.9120,-91.5717,30.0,27.9,11111222
ENI,ioos:station:wmo:42881:2,2022-10-28T03:38:00Z,26.9119,-91.5717,30.0,27.9,11111222
ENI,ioos:station:wmo:42881:2,2022-10-28T03:49:00Z,26.9119,-91.5717,30.0,27.9,11111222
ENI,ioos:station:wmo:42881:2,2022-10-28T03:59:00Z,26.9119,-91.5717,30.0,27.9,11111222
ENI,ioos:station:wmo:42881:2,2022-10-28T04:09:00Z,26.9120,-91.5718,30.0,27.9,11111222
ENI,ioos:station:wmo:42881:2,2022-10-28T04:19:00Z,26.9120,-91.5717,30.0,27.9,11111222
ENI,ioos:station:wmo:42881:2,2022-10-28T04:29:00Z,26.9119,-91.5717,30.0,27.9,11111222
ENI,ioos:station:wmo:42881:2,2022-10-28T04:39:00Z,26.9118,-91.5715,30.0,27.9,11111222
ENI,ioos:station:wmo:42881:2,2022-10-28T04:49:00Z,26.9119,-91.5717,30.0,27.9,11111222
ENI,ioos:station:wmo:42881:2,2022-10-28T04:59:00Z,26.9119,-91.5716,30.0,27.9,11111222
ENI,ioos:station:wmo:42881:2,2022-10-28T05:09:00Z,26.9119,-91.5715,30.0,27.9,11111222
ENI,ioos:station:wmo:42881:2,2022-10-28T05:19:00Z,26.9119,-91.5715,30.0,27.8,11111222
ENI,ioos:station:wmo:42881:2,2022-10-28T05:29:00Z,26.9119,-91.5718,30.0,27.8,11111222
ENI,ioos:station:wmo:42881:2,2022-10-28T05:39:00Z,26.9119,-91.5718,30.0,27.9,11111222
ENI,ioos:station:wmo:42881:2,2022-10-28T05:49:00Z,26.9119,-91.5718,30.0,27.9,11111222
ENI,ioos:station:wmo:42881:2,2022-10-28T05:59:00Z,26.9119,-91.5718,30.0,27.9,11111222
ENI,ioos:station:wmo:42881:2,2022-10-28T06:09:00Z,26.9121,-91.5712,30.0,27.9,11111222
ENI,ioos:station:wmo:42881:2,2022-10-28T06:19:00Z,26.9121,-91.5712,30.0,27.9,11111222
ENI,ioos:station:wmo:42881:2,2022-10-28T06:29:00Z,26.9121,-91.5712,30.0,27.8,11111222
ENI,ioos:station:wmo:42881:2,2022-10-28T06:39:00Z,26.9121,-91.5713,30.0,27.9,11111222
ENI,ioos:station:wmo:42881:2,2022-10-28T06:49:00Z,26.9121,-91.5712,30.0,27.9,11111222
ENI,ioos:station:wmo:42881:2,2022-10-28T06:59:00Z,26.9121,-91.5712,30.0,27.9,11111222
ENI,ioos:station:wmo:42881:2,2022-10-28T07:09:00Z,26.9121,-91.5712,30.0,27.9,11111222
ENI,ioos:station:wmo:42881:2,2022-10-28T07:19:00Z,26.9121,-91.5712,30.0,27.8,11111222
ENI,ioos:station:wmo:42881:2,2022-10-28T07:29:00Z,26.9121,-91.5713,30.0,27.8,11111222
ENI,ioos:station:wmo:42881:2,2022-10-28T07:39:00Z,26.9121,-91.5719,30.0,27.9,11111222
ENI,ioos:station:wmo:42881:2,2022-10-28T07:49:00Z,26.9121,-91.5719,30.0,27.9,11111222
ENI,ioos:station:wmo:42881:2,2022-10-28T07:59:00Z,26.9114,-91.5735,30.0,27.9,11111222
ENI,ioos:station:wmo:42881:2,2022-10-28T08:09:00Z,26.9115,-91.5736,30.0,27.9,11111222
ENI,ioos:station:wmo:42881:2,2022-10-28T08:19:00Z,26.9116,-91.5734,30.0,27.9,11111222
ENI,ioos:station:wmo:42881:2,2022-10-28T08:29:00Z,26.9116,-91.5733,30.0,27.9,11111222
ENI,ioos:station:wmo:42881:2,2022-10-28T08:39:00Z,26.9116,-91.5732,30.0,27.9,11111222
ENI,ioos:station:wmo:42881:2,2022-10-28T08:49:00Z,26.9116,-91.5733,30.0,27.9,11111222
ENI,ioos:station:wmo:42881:2,2022-10-28T08:59:00Z,26.9116,-91.5732,30.0,27.9,11111222
ENI,ioos:station:wmo:42881:2,2022-10-28T09:09:00Z,26.9115,-91.5732,30.0,27.8,11111222
ENI,ioos:station:wmo:42881:2,2022-10-28T09:19:00Z,26.9113,-91.5739,30.0,27.8,11111222
ENI,ioos:station:wmo:42881:2,2022-10-28T09:29:00Z,26.9113,-91.5739,30.0,27.8,11111222
ENI,ioos:station:wmo:42881:2,2022-10-28T09:39:00Z,26.9114,-91.5739,30.0,27.8,11111222
ENI,ioos:station:wmo:42881:2,2022-10-28T09:49:00Z,26.9114,-91.5738,30.0,27.8,11111222
ENI,ioos:station:wmo:42881:2,2022-10-28T09:59:00Z,26.9114,-91.5738,30.0,27.8,11111222
ENI,ioos:station:wmo:42881:2,2022-10-28T10:09:00Z,26.9114,-91.5738,30.0,27.8,11111222
ENI,ioos:station:wmo:42881:2,2022-10-28T10:19:00Z,26.9118,-91.5742,30.0,27.8,11111222
ENI,ioos:station:wmo:42881:2,2022-10-28T10:29:00Z,26.9118,-91.5742,30.0,27.8,11111222
ENI,ioos:station:wmo:42881:2,2022-10-28T10:39:00Z,26.9118,-91.5741,30.0,27.8,11111222
ENI,ioos:station:wmo:42881:2,2022-10-28T10:49:00Z,26.9118,-91.5741,30.0,27.8,11111222
ENI,ioos:station:wmo:42881:2,2022-10-28T10:59:00Z,26.9118,-91.5741,30.0,27.8,11111222
ENI,ioos:station:wmo:42881:2,2022-10-28T11:09:00Z,26.9120,-91.5737,30.0,27.8,11111222
ENI,ioos:station:wmo:42881:2,2022-10-28T11:19:00Z,26.9121,-91.5737,30.0,27.8,11111222
ENI,ioos:station:wmo:42881:2,2022-10-28T11:29:00Z,26.9122,-91.5737,30.0,27.8,11111222
ENI,ioos:station:wmo:42881:2,2022-10-28T11:39:00Z,26.9122,-91.5737,30.0,27.8,11111222
ENI,ioos:station:wmo:42881:2,2022-10-28T11:49:00Z,26.9122,-91.5737,30.0,27.8,11111222
ENI,ioos:station:wmo:42881:2,2022-10-28T11:59:00Z,26.9122,-91.5737,30.0,27.8,11111222
ENI,ioos:station:wmo:42881:2,2022-10-28T12:09:00Z,26.9122,-91.5738,30.0,27.8,11111222
ENI,ioos:station:wmo:42881:2,2022-10-28T12:19:00Z,26.9122,-91.5738,30.0,27.8,11111222
ENI,ioos:station:wmo:42881:2,2022-10-28T12:29:00Z,26.9121,-91.5735,30.0,27.9,11111222
ENI,ioos:station:wmo:42881:2,2022-10-28T12:39:00Z,26.9142,-91.5732,30.0,27.9,11111222
ENI,ioos:station:wmo:42881:2,2022-10-28T12:49:00Z,26.9143,-91.5733,30.0,27.9,11111222
ENI,ioos:station:wmo:42881:2,2022-10-28T12:59:00Z,26.9143,-91.5732,30.0,27.9,11111222
ENI,ioos:station:wmo:42881:2,2022-10-28T13:09:00Z,26.9140,-91.5730,30.0,27.9,11111222
ENI,ioos:station:wmo:42881:2,2022-10-28T13:19:00Z,26.9120,-91.5708,30.0,27.9,11111222
ENI,ioos:station:wmo:42881:2,2022-10-28T13:29:00Z,26.9115,-91.5703,30.0,27.9,11111222
ENI,ioos:station:wmo:42881:2,2022-10-28T13:39:00Z,26.9117,-91.5703,30.0,27.9,11111222
ENI,ioos:station:wmo:42881:2,2022-10-28T13:49:00Z,26.9116,-91.5702,30.0,27.9,11111222
ENI,ioos:station:wmo:42881:2,2022-10-28T13:59:00Z,26.9116,-91.5702,30.0,27.9,11111222
ENI,ioos:station:wmo:42881:2,2022-10-28T14:09:00Z,26.9108,-91.5711,30.0,27.9,11111222
ENI,ioos:station:wmo:42881:2,2022-10-28T14:19:00Z,26.9090,-91.5733,30.0,27.9,11111222
ENI,ioos:station:wmo:42881:2,2022-10-28T14:29:00Z,26.9090,-91.5733,30.0,27.9,11111222
ENI,ioos:station:wmo:42881:2,2022-10-28T14:39:00Z,26.9088,-91.5730,30.0,27.9,11111222
ENI,ioos:station:wmo:42881:2,2022-10-28T14:49:00Z,26.9098,-91.5740,30.0,27.9,11111222
ENI,ioos:station:wmo:42881:2,2022-10-28T14:59:00Z,26.9118,-91.5761,30.0,27.9,11111222
ENI,ioos:station:wmo:42881:2,2022-10-28T15:09:00Z,26.9118,-91.5761,30.0,27.9,11111222
ENI,ioos:station:wmo:42881:2,2022-10-28T15:19:00Z,26.9117,-91.5762,30.0,27.9,11111222
ENI,ioos:station:wmo:42881:2,2022-10-28T15:29:00Z,26.9117,-91.5761,30.0,27.9,11111222
ENI,ioos:station:wmo:42881:2,2022-10-28T15:39:00Z,26.9125,-91.5746,30.0,27.9,11111222
ENI,ioos:station:wmo:42881:2,2022-10-28T15:49:00Z,26.9125,-91.5746,30.0,27.8,11111222
ENI,ioos:station:wmo:42881:2,2022-10-28T15:59:00Z,26.9125,-91.5746,30.0,27.8,11111222
ENI,ioos:station:wmo:42881:2,2022-10-28T16:09:00Z,26.9139,-91.5735,30.0,27.8,11111222
ENI,ioos:station:wmo:42881:2,2022-10-28T16:19:00Z,26.9134,-91.5732,30.0,27.8,11111222
ENI,ioos:station:wmo:42881:2,2022-10-28T16:29:00Z,26.9123,-91.5712,30.0,27.8,11111222
ENI,ioos:station:wmo:42881:2,2022-10-28T16:39:00Z,26.9123,-91.5712,30.0,27.8,11111222
ENI,ioos:station:wmo:42881:2,2022-10-28T16:49:00Z,26.9123,-91.5712,30.0,27.8,11111222
ENI,ioos:station:wmo:42881:2,2022-10-28T16:59:00Z,26.9124,-91.5711,30.0,27.8,11111222
ENI,ioos:station:wmo:42881:2,2022-10-28T17:09:00Z,26.9123,-91.5710,30.0,27.8,11111222
ENI,ioos:station:wmo:42881:2,2022-10-28T17:19:00Z,26.9123,-91.5709,30.0,27.8,11111222
ENI,ioos:station:wmo:42881:2,2022-10-28T17:29:00Z,26.9124,-91.5712,30.0,27.8,11111222
ENI,ioos:station:wmo:42881:2,2022-10-28T17:39:00Z,26.9124,-91.5712,30.0,27.8,11111222
ENI,ioos:station:wmo:42881:2,2022-10-28T17:49:00Z,26.9124,-91.5712,30.0,27.9,11111222
ENI,ioos:station:wmo:42881:2,2022-10-28T17:59:00Z,26.9120,-91.5713,30.0,27.9,11111222
ENI,ioos:station:wmo:42881:2,2022-10-28T18:09:00Z,26.9119,-91.5713,30.0,27.9,11111222
ENI,ioos:station:wmo:42881:2,2022-10-28T18:19:00Z,26.9119,-91.5713,30.0,27.9,11111222
ENI,ioos:station:wmo:42881:2,2022-10-28T18:29:00Z,26.9119,-91.5713,30.0,27.9,11111222
ENI,ioos:station:wmo:42881:2,2022-10-28T18:39:00Z,26.9120,-91.5712,30.0,27.9,11111222
ENI,ioos:station:wmo:42881:2,2022-10-28T18:49:00Z,26.9120,-91.5713,30.0,27.9,11111222
ENI,ioos:station:wmo:42881:2,2022-10-28T18:59:00Z,26.9120,-91.5713,30.0,27.9,11111222
ENI,ioos:station:wmo:42881:2,2022-10-28T19:09:00Z,26.9120,-91.5713,30.0,27.9,11111222
ENI,ioos:station:wmo:42881:2,2022-10-28T19:19:00Z,26.9119,-91.5714,30.0,27.9,11111222
ENI,ioos:station:wmo:42881:2,2022-10-28T19:29:00Z,26.9121,-91.5713,30.0,28.0,11111222
ENI,ioos:station:wmo:42881:2,2022-10-28T19:39:00Z,26.9121,-91.5713,30.0,28.0,11111222
ENI,ioos:station:wmo:42881:2,2022-10-28T19:49:00Z,26.9121,-91.5713,30.0,28.0,11111222
ENI,ioos:station:wmo:42881:2,2022-10-28T19:59:00Z,26.9120,-91.5714,30.0,28.0,11111222
ENI,ioos:station:wmo:42881:2,2022-10-28T20:09:00Z,26.9120,-91.5713,30.0,28.0,11111222
ENI,ioos:station:wmo:42881:2,2022-10-28T20:19:00Z,26.9120,-91.5714,30.0,28.0,11111222
ENI,ioos:station:wmo:42881:2,2022-10-28T20:29:00Z,26.9120,-91.5714,30.0,28.0,11111222
ENI,ioos:station:wmo:42881:2,2022-10-28T20:39:00Z,26.9119,-91.5714,30.0,28.0,11111222
ENI,ioos:station:wmo:42881:2,2022-10-28T20:49:00Z,26.9120,-91.5714,30.0,28.0,11111222
ENI,ioos:station:wmo:42881:2,2022-10-28T20:59:00Z,26.9121,-91.5714,30.0,28.0,11111222
ENI,ioos:station:wmo:42881:2,2022-10-28T21:09:00Z,26.9121,-91.5714,30.0,28.0,11111222
ENI,ioos:station:wmo:42881:2,2022-10-28T21:19:00Z,26.9120,-91.5714,30.0,28.0,11111222
ENI,ioos:station:wmo:42881:2,2022-10-28T21:29:00Z,26.9119,-91.5714,30.0,28.0,11111222
ENI,ioos:station:wmo:42881:2,2022-10-28T21:39:00Z,26.9119,-91.5714,30.0,28.0,11111222
ENI,ioos:station:wmo:42881:2,2022-10-28T21:49:00Z,26.9120,-91.5714,30.0,28.0,11111222
ENI,ioos:station:wmo:42881:2,2022-10-28T21:59:00Z,26.9119,-91.5712,30.0,28.1,11111222
ENI,ioos:station:wmo:42881:2,2022-10-28T22:09:00Z,26.9119,-91.5712,30.0,28.0,11111222
ENI,ioos:station:wmo:42881:2,2022-10-28T22:19:00Z,26.9119,-91.5712,30.0,28.0,11111222
ENI,ioos:station:wmo:42881:2,2022-10-28T22:29:00Z,26.9119,-91.5714,30.0,28.0,11111222
ENI,ioos:station:wmo:42881:2,2022-10-28T22:39:00Z,26.9121,-91.5713,30.0,28.0,11111222
ENI,ioos:station:wmo:42881:2,2022-10-28T22:49:00Z,26.9120,-91.5714,30.0,28.0,11111222
ENI,ioos:station:wmo:42881:2,2022-10-28T22:59:00Z,26.9120,-91.5714,30.0,28.0,11111222
ENI,ioos:station:wmo:42881:2,2022-10-28T23:09:00Z,26.9121,-91.5714,30.0,28.0,11111222
ENI,ioos:station:wmo:42881:2,2022-10-28T23:19:00Z,26.9121,-91.5712,30.0,28.0,11111222
ENI,ioos:station:wmo:42881:2,2022-10-28T23:29:00Z,26.9120,-91.5712,30.0,28.0,11111222
ENI,ioos:station:wmo:42881:2,2022-10-28T23:39:00Z,26.9120,-91.5712,30.0,28.0,11111222
ENI,ioos:station:wmo:42881:2,2022-10-28T23:49:00Z,26.9121,-91.5712,30.0,28.0,11111222
ENI,ioos:station:wmo:42881:2,2022-10-28T23:59:00Z,26.9121,-91.5712,30.0,28.0,11111222
ENI,ioos:station:wmo:42881:2,2022-10-29T00:08:00Z,26.9120,-91.5713,30.0,27.9,11111222
ENI,ioos:station:wmo:42881:2,2022-10-29T00:19:00Z,26.9120,-91.5713,30.0,27.9,11111222
ENI,ioos:station:wmo:42881:2,2022-10-29T00:29:00Z,26.9120,-91.5713,30.0,27.9,11111222
ENI,ioos:station:wmo:42881:2,2022-10-29T00:39:00Z,26.9120,-91.5713,30.0,27.9,11111222
ENI,ioos:station:wmo:42881:2,2022-10-29T00:49:00Z,26.9121,-91.5712,30.0,27.9,11111222
ENI,ioos:station:wmo:42881:2,2022-10-29T00:59:00Z,26.9121,-91.5712,30.0,27.9,11111222
ENI,ioos:station:wmo:42881:2,2022-10-29T01:09:00Z,26.9121,-91.5713,30.0,27.9,11111222
ENI,ioos:station:wmo:42881:2,2022-10-29T01:19:00Z,26.9121,-91.5713,30.0,27.9,11111222
ENI,ioos:station:wmo:42881:2,2022-10-29T01:29:00Z,26.9121,-91.5714,30.0,27.9,11111222
ENI,ioos:station:wmo:42881:2,2022-10-29T01:39:00Z,26.9121,-91.5714,30.0,27.8,11111222
ENI,ioos:station:wmo:42881:2,2022-10-29T01:49:00Z,26.9120,-91.5714,30.0,27.9,11111222
ENI,ioos:station:wmo:42881:2,2022-10-29T01:59:00Z,26.9120,-91.5712,30.0,27.8,11111222
ENI,ioos:station:wmo:42881:2,2022-10-29T02:09:00Z,26.9120,-91.5712,30.0,27.8,11111222
ENI,ioos:station:wmo:42881:2,2022-10-29T02:19:00Z,26.9120,-91.5712,30.0,27.8,11111222
ENI,ioos:station:wmo:42881:2,2022-10-29T02:29:00Z,26.9120,-91.5712,30.0,27.8,11111222
ENI,ioos:station:wmo:42881:2,2022-10-29T02:39:00Z,26.9119,-91.5711,30.0,27.8,11111222
ENI,ioos:station:wmo:42881:2,2022-10-29T02:49:00Z,26.9119,-91.5711,30.0,27.8,11111222
ENI,ioos:station:wmo:42881:2,2022-10-29T02:59:00Z,26.9120,-91.5713,30.0,27.8,11111222
ENI,ioos:station:wmo:42881:2,2022-10-29T03:09:00Z,26.9121,-91.5711,30.0,27.8,11111222
ENI,ioos:station:wmo:42881:2,2022-10-29T03:19:00Z,26.9122,-91.5711,30.0,27.8,11111222
ENI,ioos:station:wmo:42881:2,2022-10-29T03:29:00Z,26.9122,-91.5712,30.0,27.8,11111222
ENI,ioos:station:wmo:42881:2,2022-10-29T03:39:00Z,26.9122,-91.5711,30.0,27.8,11111222
ENI,ioos:station:wmo:42881:2,2022-10-29T03:49:00Z,26.9121,-91.5711,30.0,27.8,11111222
ENI,ioos:station:wmo:42881:2,2022-10-29T03:59:00Z,26.9121,-91.5711,30.0,27.8,11111222
ENI,ioos:station:wmo:42881:2,2022-10-29T04:09:00Z,26.9122,-91.5710,30.0,27.8,11111222
ENI,ioos:station:wmo:42881:2,2022-10-29T04:19:00Z,26.9122,-91.5712,30.0,27.8,11111222
ENI,ioos:station:wmo:42881:2,2022-10-29T04:29:00Z,26.9121,-91.5710,30.0,27.8,11111222
ENI,ioos:station:wmo:42881:2,2022-10-29T04:39:00Z,26.9121,-91.5711,30.0,27.8,11111222
ENI,ioos:station:wmo:42881:2,2022-10-29T04:49:00Z,26.9121,-91.5711,30.0,27.8,11111222
ENI,ioos:station:wmo:42881:2,2022-10-29T04:59:00Z,26.9124,-91.5714,30.0,27.8,11111222
ENI,ioos:station:wmo:42881:2,2022-10-29T05:09:00Z,26.9122,-91.5713,30.0,27.8,11111222
ENI,ioos:station:wmo:42881:2,2022-10-29T05:19:00Z,26.9121,-91.5711,30.0,27.8,11111222
ENI,ioos:station:wmo:42881:2,2022-10-29T05:29:00Z,26.9120,-91.5711,30.0,27.8,11111222
ENI,ioos:station:wmo:42881:2,2022-10-29T05:39:00Z,26.9120,-91.5711,30.0,27.8,11111222
ENI,ioos:station:wmo:42881:2,2022-10-29T05:49:00Z,26.9120,-91.5711,30.0,27.8,11111222
ENI,ioos:station:wmo:42881:2,2022-10-29T05:59:00Z,26.9121,-91.5711,30.0,27.8,11111222
ENI,ioos:station:wmo:42881:2,2022-10-29T06:09:00Z,26.9121,-91.5711,30.0,27.8,11111222
ENI,ioos:station:wmo:42881:2,2022-10-29T06:19:00Z,26.9122,-91.5711,30.0,27.8,11111222
ENI,ioos:station:wmo:42881:2,2022-10-29T06:29:00Z,26.9122,-91.5711,30.0,27.8,11111222
ENI,ioos:station:wmo:42881:2,2022-10-29T06:39:00Z,26.9121,-91.5710,30.0,27.8,11111222
ENI,ioos:station:wmo:42881:2,2022-10-29T06:49:00Z,26.9121,-91.5710,30.0,27.9,11111222
ENI,ioos:station:wmo:42881:2,2022-10-29T06:59:00Z,26.9121,-91.5710,30.0,27.8,11111222
ENI,ioos:station:wmo:42881:2,2022-10-29T07:09:00Z,26.9121,-91.5710,30.0,27.9,11111222
ENI,ioos:station:wmo:42881:2,2022-10-29T07:19:00Z,26.9121,-91.5710,30.0,27.9,11111222
ENI,ioos:station:wmo:42881:2,2022-10-29T07:29:00Z,26.9121,-91.5711,30.0,27.8,11111222
ENI,ioos:station:wmo:42881:2,2022-10-29T07:39:00Z,26.9121,-91.5711,30.0,27.8,11111222
ENI,ioos:station:wmo:42881:2,2022-10-29T07:49:00Z,26.9121,-91.5711,30.0,27.8,11111222
ENI,ioos:station:wmo:42881:2,2022-10-29T07:59:00Z,26.9121,-91.5711,30.0,27.8,11111222
ENI,ioos:station:wmo:42881:2,2022-10-29T08:09:00Z,26.9121,-91.5711,30.0,27.8,11111222
ENI,ioos:station:wmo:42881:2,2022-10-29T08:19:00Z,26.9120,-91.5712,30.0,27.8,11111222
ENI,ioos:station:wmo:42881:2,2022-10-29T08:29:00Z,26.9120,-91.5714,30.0,27.9,11111222
ENI,ioos:station:wmo:42881:2,2022-10-29T08:39:00Z,26.9120,-91.5713,30.0,27.9,11111222
ENI,ioos:station:wmo:42881:2,2022-10-29T08:49:00Z,26.9119,-91.5713,30.0,27.8,11111222
ENI,ioos:station:wmo:42881:2,2022-10-29T08:59:00Z,26.9120,-91.5714,30.0,27.9,11111222
ENI,ioos:station:wmo:42881:2,2022-10-29T09:09:00Z,26.9121,-91.5714,30.0,27.9,11111222
ENI,ioos:station:wmo:42881:2,2022-10-29T09:19:00Z,26.9119,-91.5714,30.0,27.8,11111222
ENI,ioos:station:wmo:42881:2,2022-10-29T09:29:00Z,26.9119,-91.5713,30.0,27.9,11111222
ENI,ioos:station:wmo:42881:2,2022-10-29T09:39:00Z,26.9119,-91.5713,30.0,27.8,11111222
ENI,ioos:station:wmo:42881:2,2022-10-29T09:49:00Z,26.9118,-91.5712,30.0,27.8,11111222
ENI,ioos:station:wmo:42881:2,2022-10-29T09:59:00Z,26.9117,-91.5713,30.0,27.8,11111222
ENI,ioos:station:wmo:42881:2,2022-10-29T10:09:00Z,26.9119,-91.5711,30.0,27.8,11111222
ENI,ioos:station:wmo:42881:2,2022-10-29T10:19:00Z,26.9119,-91.5711,30.0,27.8,11111222
ENI,ioos:station:wmo:42881:2,2022-10-29T10:29:00Z,26.9121,-91.5713,30.0,27.8,11111222
ENI,ioos:station:wmo:42881:2,2022-10-29T10:39:00Z,26.9120,-91.5712,30.0,27.8,11111222
ENI,ioos:station:wmo:42881:2,2022-10-29T10:49:00Z,26.9121,-91.5715,30.0,27.8,11111222
ENI,ioos:station:wmo:42881:2,2022-10-29T10:59:00Z,26.9121,-91.5712,30.0,27.8,11111222
ENI,ioos:station:wmo:42881:2,2022-10-29T11:09:00Z,26.9121,-91.5714,30.0,27.8,11111222
ENI,ioos:station:wmo:42881:2,2022-10-29T11:19:00Z,26.9120,-91.5713,30.0,27.8,11111222
ENI,ioos:station:wmo:42881:2,2022-10-29T11:29:00Z,26.9120,-91.5713,30.0,27.8,11111222
ENI,ioos:station:wmo:42881:2,2022-10-29T11:39:00Z,26.9120,-91.5713,30.0,27.8,11111222
ENI,ioos:station:wmo:42881:2,2022-10-29T11:49:00Z,26.9120,-91.5714,30.0,27.8,11111222
ENI,ioos:station:wmo:42881:2,2022-10-29T11:59:00Z,26.9120,-91.5714,30.0,27.8,11111222
ENI,ioos:station:wmo:42881:2,2022-10-29T12:09:00Z,26.9120,-91.5714,30.0,27.8,11111222
ENI,ioos:station:wmo:42881:2,2022-10-29T12:19:00Z,26.9119,-91.5713,30.0,27.8,11111222